Latrobe, PA

10:52 AM EST on November 21, 2019 (GMT -0500)
Arnold Palmer Regional

Weather History for KLBE - October, 2019

Change the Weather History Date:

Monday, October 21, 2019

  Actual Average Record
Temperature  
Mean Temperature 54 °F -  
Max Temperature 69 °F 58 °F 78 °F (2007)
Min Temperature 39 °F 39 °F 28 °F (1997)
Degree Days  
Heating Degree Days 11    
Growing Degree Days 4 (Base 50)    
Moisture  
Dew Point 46 °F    
Average Humidity 82    
Maximum Humidity 100    
Minimum Humidity 38    
Precipitation  
Precipitation 0.00 in - - ()
Sea Level Pressure  
Sea Level Pressure 29.98 in    
Wind  
Wind Speed 2 mph (SE)    
Max Wind Speed 14 mph    
Max Gust Speed 23 mph    
Visibility 6 miles    
Events Fog    
Averages and records for this station are not official NWS values.
T = Trace of Precipitation, MM = Missing Value Source: NWS Daily Summary

Daily Weather History Graph

Daily Weather History Graph

Search for Another Location

Airport or City:

Astronomy

Oct. 21, 2019 Rise Set
Actual Time 7:34 AM EDT 6:29 PM EDT
Civil Twilight 7:06 AM EDT 6:56 PM EDT
Nautical Twilight 6:35 AM EDT 7:28 PM EDT
Astronomical Twilight 6:03 AM EDT 8:00 PM EDT
Moon No Moon Rise 2:51 PM EDT
Length of Visible Light 11h 50m
Length of Day
10h 54m
Waning Gibbous, 48% of the Moon is Illuminated
Oct 21
Waning Gibbous
Oct 27
New
Nov 4
First Quarter
Nov 12
Full
Nov 19
Last Quarter

Hourly Weather History & Observations

Time (EDT) Temp. Dew Point Humidity Pressure Visibility Wind Dir Wind Speed Gust Speed Precip Events Conditions
12:15 AM 46.4 °F 46.4 °F 100% 30.01 in 0.2 mi Calm Calm - N/A Fog Fog
12:35 AM 46.4 °F 46.4 °F 100% 30.02 in 0.2 mi Calm Calm - N/A Fog Fog
12:55 AM 44.6 °F 44.6 °F 100% 30.02 in 1.0 mi Calm Calm - N/A   Clear
1:15 AM 46.4 °F 46.4 °F 100% 30.02 in 0.2 mi Calm Calm - N/A Fog Fog
1:35 AM 44.6 °F 44.6 °F 100% 30.02 in 0.2 mi Calm Calm - N/A Fog Fog
1:55 AM 44.6 °F 44.6 °F 100% 30.03 in 0.5 mi Calm Calm - N/A   Mist
2:15 AM 44.6 °F 44.6 °F 100% 30.02 in 0.2 mi Calm Calm - N/A Fog Fog
2:35 AM 42.8 °F 42.8 °F 100% 30.02 in 0.2 mi Calm Calm - N/A Fog Fog
2:55 AM 42.8 °F 42.8 °F 100% 30.02 in 0.2 mi Calm Calm - N/A Fog Fog
3:15 AM 42.8 °F 42.8 °F 100% 30.02 in 0.2 mi Calm Calm - N/A Fog Fog
3:35 AM 42.8 °F 42.8 °F 100% 30.02 in 0.5 mi Calm Calm - N/A   Overcast
3:55 AM 42.8 °F 42.8 °F 100% 30.02 in 0.2 mi Calm Calm - N/A Fog Fog
4:15 AM 41.0 °F 41.0 °F 100% 30.02 in 0.2 mi Calm Calm - N/A Fog Fog
4:35 AM 41.0 °F 41.0 °F 100% 30.02 in 0.2 mi Calm Calm - N/A Fog Fog
4:55 AM 41.0 °F 41.0 °F 100% 30.03 in 0.2 mi Calm Calm - N/A Fog Fog
5:15 AM 41.0 °F 41.0 °F 100% 30.04 in 0.2 mi Calm Calm - N/A Fog Fog
5:35 AM 41.0 °F 41.0 °F 100% 30.04 in 0.2 mi Calm Calm - N/A Fog Fog
5:55 AM 41.0 °F 41.0 °F 100% 30.04 in 0.2 mi Calm Calm - N/A Fog Fog
6:53 AM 41.0 °F 41.0 °F 100% 30.04 in 0.2 mi Calm Calm - N/A Fog Fog
7:25 AM 39.2 °F 39.2 °F 100% 30.04 in 4.0 mi Calm Calm - N/A   Clear
7:53 AM 39.2 °F 39.2 °F 100% 30.04 in 8.0 mi Calm Calm - N/A   Clear
8:53 AM 42.8 °F 42.8 °F 100% 30.06 in 8.0 mi Calm Calm - N/A   Clear
9:53 AM 48.2 °F 48.2 °F 100% 30.05 in 10.0 mi Calm Calm - N/A   Clear
10:53 AM 53.6 °F 53.6 °F 100% 30.02 in 10.0 mi NNE 9.2 mph - N/A   Clear
11:53 AM 64.4 °F 44.6 °F 49% 30.03 in 10.0 mi East 11.5 mph - N/A   Clear
12:47 PM 66.2 °F 46.4 °F 49% 30.00 in 20.0 mi SE 11.5 mph - N/A   Clear
1:47 PM 69.8 °F 42.8 °F 38% 29.97 in 20.0 mi SE 13.8 mph 23.0 mph N/A   Clear
2:47 PM 69.8 °F 42.8 °F 38% 29.94 in 20.0 mi ESE 11.5 mph 23.0 mph N/A   Partly Cloudy
3:50 PM 69.8 °F 44.6 °F 40% 29.94 in 15.0 mi SE 12.7 mph - N/A   Clear
4:45 PM 69.8 °F 44.6 °F 40% 29.92 in 15.0 mi SE 6.9 mph - N/A   Clear
5:50 PM 66.2 °F 46.4 °F 49% 29.90 in 10.0 mi ESE 12.7 mph - N/A   Clear
6:50 PM 64.4 °F 50.0 °F 59% 29.90 in 10.0 mi Variable 4.6 mph - N/A   Clear
7:55 PM 62.6 °F 50.0 °F 63% 29.91 in 10.0 mi Variable 4.6 mph - N/A   Clear
8:50 PM 62.6 °F 50.0 °F 63% 29.92 in 10.0 mi SSE 13.8 mph - N/A   Clear
9:45 PM 62.6 °F 51.8 °F 68% 29.90 in 10.0 mi SSE 13.8 mph - N/A   Clear
10:15 PM 60.8 °F 51.8 °F 72% 29.90 in 10.0 mi ESE 10.4 mph 16.1 mph N/A   Partly Cloudy
10:35 PM 60.8 °F 51.8 °F 72% 29.90 in 10.0 mi Calm Calm 12.7 mph N/A   Scattered Clouds
10:55 PM 62.6 °F 51.8 °F 68% 29.90 in 10.0 mi Calm Calm - N/A   Partly Cloudy
11:15 PM 62.6 °F 51.8 °F 68% 29.89 in 10.0 mi Variable 3.5 mph - N/A   Clear
11:35 PM 60.8 °F 51.8 °F 72% 29.89 in 10.0 mi Variable 6.9 mph 12.7 mph N/A   Clear
11:55 PM 60.8 °F 51.8 °F 72% 29.89 in 10.0 mi South 6.9 mph 13.8 mph N/A   Partly Cloudy